Location: Litvinovka
(48.6667°N, 34.3500°E)
Time: 06:17:09
(UTC+00:00)

CZ-2D R/B - Pass Details

Date: 18 September 2020
Orbit: 791 x 846 km, 98.7° (Epoch: 21 October)

Event Time Altitude Azimuth Distance (km) Brightness Sun altitude
Rises 22:34:25 0° 22° (NNE) 3,358 6.3 -38.4°
Reaches altitude 10° 22:37:03 10° 32° (NNE) 2,412 5.3 -38.2°
Enters shadow 22:39:26 22° 52° (NE) 1,693 4.2 -38.1°
